• In United Kingdom
  • List of Countries
  • For 7 days
  • Water Temperature
  • Satellite Maps
  • Weather Map
  • Weather Widgets
  • user-avatar
    Login

    Hourly Weather Santiago de Querétaro

    Today, 25 November, Saturday

    Time Temperature Precipitation Wind Pressure Humidity
    00:00 +11°C° 0 mm 1 mps 605 mmHg 38%
    01:00 +11°C° 0 mm 1 mps 605 mmHg 40%
    02:00 +10°C° 0 mm 1 mps 605 mmHg 41%
    03:00 +10°C° 0 mm 1 mps 605 mmHg 43%
    04:00 +10°C° 0 mm 1 mps 605 mmHg 46%
    05:00 +9°C° 0 mm 1 mps 605 mmHg 48%
    06:00 +11°C° 0 mm 1 mps 606 mmHg 44%
    07:00 +13°C° 0 mm 1 mps 607 mmHg 39%
    08:00 +16°C° 0 mm 1 mps 608 mmHg 35%
    09:00 +18°C° 0 mm 2 mps 609 mmHg 29%
    10:00 +20°C° 0 mm 2 mps 609 mmHg 23%
    11:00 +23°C° 0 mm 2 mps 610 mmHg 17%
    12:00 +24°C° 0 mm 2 mps 610 mmHg 16%
    13:00 +25°C° 0 mm 2 mps 609 mmHg 14%
    14:00 +26°C° 0 mm 3 mps 609 mmHg 13%
    15:00 +24°C° 0 mm 2 mps 608 mmHg 15%
    16:00 +21°C° 0 mm 2 mps 608 mmHg 17%
    17:00 +19°C° 0 mm 2 mps 607 mmHg 19%
    18:00 +18°C° 0 mm 2 mps 607 mmHg 21%
    19:00 +17°C° 0 mm 2 mps 608 mmHg 23%
    20:00 +15°C° 0 mm 2 mps 608 mmHg 25%
    21:00 +15°C° 0 mm 2 mps 608 mmHg 28%
    22:00 +14°C° 0 mm 2 mps 608 mmHg 32%
    23:00 +13°C° 0 mm 2 mps 608 mmHg 35%

    Tomorrow, 26 November, Sunday

    Time Temperature Precipitation Wind Pressure Humidity
    00:00 +12°C° 0 mm 2 mps 608 mmHg 39%
    01:00 +12°C° 0 mm 2 mps 607 mmHg 42%
    02:00 +10°C° 0 mm 2 mps 607 mmHg 46%
    03:00 +10°C° 0 mm 2 mps 607 mmHg 48%
    04:00 +9°C° 0 mm 2 mps 607 mmHg 49%
    05:00 +9°C° 0 mm 2 mps 607 mmHg 51%
    06:00 +12°C° 0 mm 2 mps 608 mmHg 44%
    07:00 +13°C° 0 mm 3 mps 610 mmHg 38%
    08:00 +16°C° 0 mm 3 mps 611 mmHg 32%
    09:00 +18°C° 0 mm 4 mps 611 mmHg 28%
    10:00 +19°C° 0 mm 5 mps 612 mmHg 24%
    11:00 +21°C° 0 mm 6 mps 612 mmHg 20%
    12:00 +22°C° 0 mm 5 mps 611 mmHg 20%
    13:00 +22°C° 0 mm 5 mps 611 mmHg 21%
    14:00 +22°C° 0 mm 5 mps 610 mmHg 21%
    15:00 +21°C° 0 mm 5 mps 610 mmHg 26%
    16:00 +19°C° 0 mm 4 mps 609 mmHg 31%
    17:00 +17°C° 0 mm 4 mps 609 mmHg 35%
    18:00 +15°C° 0 mm 4 mps 609 mmHg 43%
    19:00 +13°C° 0 mm 3 mps 609 mmHg 50%
    20:00 +12°C° 0 mm 3 mps 609 mmHg 57%
    21:00 +11°C° 0 mm 3 mps 609 mmHg 62%
    22:00 +10°C° 0 mm 2 mps 609 mmHg 67%
    23:00 +9°C° 0 mm 2 mps 608 mmHg 72%

    Day after tomorrow, 27 November, Monday

    Time Temperature Precipitation Wind Pressure Humidity
    00:00 +9°C° 0 mm 2 mps 608 mmHg 74%
    01:00 +8°C° 0 mm 2 mps 607 mmHg 77%
    02:00 +7°C° 0 mm 2 mps 607 mmHg 79%
    03:00 +8°C° 0 mm 1 mps 606 mmHg 79%
    04:00 +8°C° 0 mm 1 mps 606 mmHg 80%
    05:00 +7°C° 0 mm 1 mps 606 mmHg 80%
    06:00 +9°C° 0 mm 1 mps 607 mmHg 69%
    07:00 +10°C° 0 mm 2 mps 608 mmHg 59%
    08:00 +13°C° 0 mm 2 mps 609 mmHg 48%
    09:00 +16°C° 0 mm 2 mps 609 mmHg 39%
    10:00 +18°C° 0 mm 2 mps 610 mmHg 31%
    11:00 +21°C° 0 mm 2 mps 610 mmHg 22%
    12:00 +21°C° 0 mm 2 mps 609 mmHg 21%
    13:00 +23°C° 0 mm 2 mps 609 mmHg 20%
    14:00 +24°C° 0 mm 2 mps 608 mmHg 18%
    15:00 +21°C° 0 mm 2 mps 608 mmHg 22%
    16:00 +20°C° 0 mm 2 mps 607 mmHg 26%
    17:00 +18°C° 0 mm 2 mps 607 mmHg 29%
    18:00 +16°C° 0 mm 2 mps 607 mmHg 35%
    19:00 +15°C° 0 mm 2 mps 607 mmHg 40%
    20:00 +14°C° 0 mm 2 mps 607 mmHg 46%
    21:00 +13°C° 0 mm 2 mps 606 mmHg 51%
    22:00 +12°C° 0 mm 1 mps 606 mmHg 56%
    23:00 +11°C° 0 mm 1 mps 606 mmHg 61%

    28 November, Tuesday

    Time Temperature Precipitation Wind Pressure Humidity
    00:00 +11°C° 0 mm 1 mps 605 mmHg 63%
    01:00 +11°C° 0 mm 1 mps 605 mmHg 65%
    02:00 +10°C° 0 mm 1 mps 604 mmHg 67%
    03:00 +10°C° 0 mm 1 mps 604 mmHg 66%
    04:00 +10°C° 0 mm 1 mps 604 mmHg 65%
    05:00 +9°C° 0 mm 1 mps 604 mmHg 64%
    06:00 +11°C° 0 mm 1 mps 605 mmHg 56%
    07:00 +14°C° 0 mm 1 mps 607 mmHg 47%
    08:00 +16°C° 0 mm 1 mps 608 mmHg 39%
    09:00 +19°C° 0 mm 1 mps 608 mmHg 33%
    10:00 +20°C° 0 mm 2 mps 609 mmHg 27%
    11:00 +24°C° 0 mm 2 mps 609 mmHg 22%
    12:00 +24°C° 0 mm 2 mps 608 mmHg 20%
    13:00 +25°C° 0 mm 2 mps 608 mmHg 18%
    14:00 +26°C° 0 mm 2 mps 607 mmHg 16%
    15:00 +24°C° 0 mm 2 mps 607 mmHg 19%
    16:00 +21°C° 0 mm 2 mps 607 mmHg 22%
    17:00 +20°C° 0 mm 2 mps 606 mmHg 25%
    18:00 +19°C° 0 mm 1 mps 606 mmHg 29%
    19:00 +18°C° 0 mm 1 mps 606 mmHg 33%
    20:00 +16°C° 0 mm 1 mps 607 mmHg 37%
    21:00 +15°C° 0 mm 1 mps 607 mmHg 40%
    22:00 +14°C° 0 mm 1 mps 606 mmHg 44%
    23:00 +14°C° 0 mm 1 mps 606 mmHg 47%

    29 November, Wednesday

    Time Temperature Precipitation Wind Pressure Humidity
    00:00 +13°C° 0 mm 1 mps 606 mmHg 51%
    01:00 +12°C° 0 mm 1 mps 606 mmHg 55%
    02:00 +12°C° 0 mm 1 mps 605 mmHg 59%
    03:00 +11°C° 0 mm 1 mps 606 mmHg 61%
    04:00 +11°C° 0 mm 1 mps 606 mmHg 64%
    05:00 +11°C° 0 mm 1 mps 606 mmHg 66%
    06:00 +13°C° 0 mm 1 mps 607 mmHg 62%
    07:00 +14°C° 0 mm 2 mps 608 mmHg 58%
    08:00 +16°C° 0 mm 2 mps 609 mmHg 54%
    09:00 +18°C° 0 mm 2 mps 610 mmHg 45%
    10:00 +20°C° 0 mm 3 mps 610 mmHg 36%
    11:00 +22°C° 0 mm 4 mps 611 mmHg 26%
    12:00 +23°C° 0 mm 4 mps 610 mmHg 25%
    13:00 +23°C° 0 mm 4 mps 610 mmHg 24%
    14:00 +25°C° 0 mm 5 mps 609 mmHg 23%
    15:00 +22°C° 0 mm 4 mps 609 mmHg 29%
    16:00 +20°C° 0 mm 4 mps 609 mmHg 35%
    17:00 +18°C° 0 mm 4 mps 608 mmHg 41%
    18:00 +17°C° 0 mm 4 mps 608 mmHg 50%
    19:00 +14°C° 0 mm 3 mps 609 mmHg 59%
    20:00 +12°C° 0 mm 3 mps 609 mmHg 68%
    21:00 +13°C° 0 mm 2 mps 608 mmHg 74%
    22:00 +12°C° 0 mm 2 mps 608 mmHg 79%
    23:00 +10°C° 0 mm 2 mps 608 mmHg 85%

    30 November, Thursday

    Time Temperature Precipitation Wind Pressure Humidity
    00:00 +10°C° 0 mm 2 mps 607 mmHg 87%
    01:00 +9°C° 0 mm 2 mps 607 mmHg 89%
    02:00 +10°C° 0 mm 1 mps 606 mmHg 91%
    03:00 +9°C° 0 mm 1 mps 606 mmHg 91%
    04:00 +9°C° 0 mm 1 mps 606 mmHg 91%
    05:00 +9°C° 0 mm 1 mps 606 mmHg 90%
    06:00 +10°C° 0 mm 1 mps 607 mmHg 81%
    07:00 +12°C° 0 mm 2 mps 608 mmHg 72%
    08:00 +14°C° 0 mm 2 mps 609 mmHg 62%
    09:00 +16°C° 0 mm 2 mps 610 mmHg 51%
    10:00 +18°C° 0 mm 3 mps 610 mmHg 39%
    11:00 +21°C° 0 mm 3 mps 611 mmHg 27%
    12:00 +22°C° 0 mm 4 mps 610 mmHg 26%
    13:00 +22°C° 0 mm 5 mps 610 mmHg 25%
    14:00 +23°C° 0 mm 5 mps 610 mmHg 23%
    15:00 +21°C° 0 mm 5 mps 610 mmHg 30%
    16:00 +19°C° 0 mm 5 mps 609 mmHg 38%
    17:00 +17°C° 0 mm 5 mps 609 mmHg 45%
    18:00 +15°C° 0 mm 5 mps 609 mmHg 57%
    19:00 +14°C° 0 mm 5 mps 609 mmHg 68%
    20:00 +12°C° 0 mm 5 mps 610 mmHg 80%
    21:00 +12°C° 0 mm 5 mps 610 mmHg 80%
    22:00 +12°C° 0 mm 4 mps 610 mmHg 81%
    23:00 +12°C° 0 mm 4 mps 610 mmHg 81%
    Show more